Tracking 25734 objects as of 28-May-2022
HD Live streaming from Space Station
objects crossing your sky now

ONEWEB-0430

Track ONEWEB-0430 now!
10-day predictions
ONEWEB-0430 is classified as:


NORAD ID: 50501
Int'l Code: 2021-132AJ
Perigee: 593.6 km
Apogee: 600.9 km
Inclination: 87.2 °
Period: 96.5 minutes
Semi major axis: 6968 km
RCS: Unknown
Launch date: December 27, 2021
Source: United Kingdom (UK)
Launch site: TYURATAM MISSILE AND SPACE COMPLEX (TTMTR)
aabbcc
Your satellite tracking list
Your tracking list is empty




NASA's NSSDC Master Catalog

Two Line Element Set (TLE):
1 50501U 21132AJ  22147.91731011  .00002375  00000-0  22877-3 0  9995
2 50501  87.2268 302.8073 0005244  78.8116 281.3702 14.92512742 22683
Source of the keplerian elements: AFSPC